Tracking 20475 objects as of 27-Feb-2020
HD Live streaming from Space Station
objects crossing your sky now

ARIANE 5 R/B

Track ARIANE 5 R/B now!


NORAD ID: 25990
Int'l Code: 1999-066B
Perigee: 3,732.6 km
Apogee: 108,917.6 km
Inclination: 61.0 °
Period: 2,603.9 minutes
Semi major axis: 62696 km
RCS: 6.3096 m2 (large)
Launch date: December 10, 1999
Source: France (FR)
Launch site: FRENCH GUIANA (FRGUI)

Note: This is a ROCKET BODY
aabbcc
Your satellite tracking list
Your tracking list is empty




NASA's NSSDC Master Catalog

Two Line Element Set (TLE):
1 25990U 99066B   20047.47487223 -.00000765  00000-0  00000+0 0  9993
2 25990  60.9825  39.1744 8388486  88.7868   0.4886  0.55302228 28569
Source of the keplerian elements: AFSPC